EHI
0 0 0 0 0 0 0 0 0 0 0 0 0 0 0 0 0 1 0 0 1 1 2 3 6 9 9 9 9 7 5 4 3 3 1 1 1 1 0 0 0 0 0 0 0 0 0 0 0
0 0 0 0 0 0 0 0 0 0 0 0 0 0 0 0 1 1 1 1 1 1 1 3 6 8 8 8 7 7 6 4 3 3 2 1 1 2 1 0 0 0 0 0 0 0 0 0 0
0 0 0 0 0 0 0 0 0 0 0 0 0 0 0 0 1 2 1 1 2 2 1 2 5 6 6 6 5 6 5 4 3 3 3 2 2 2 2 1 1 1 0 0 0 0 0 0 0
0 0 0 0 0 0 0 0 0 0 0 0 0 0 0 0 2 3 3 1 2 2 2 3 3 3 3 4 4 4 4 3 3 3 3 3 2 2 2 2 2 2 1 1 1 0 0 0 0
0 0 0 0 0 0 0 0 0 0 0 0 0 0 0 1 3 6 5 3 2 2 3 4 3 2 1 2 3 3 3 3 3 3 3 3 3 3 2 1 1 2 2 1 1 0 0 0 0
0 0 0 0 0 0 0 0 0 0 0 0 0 0 0 1 4 7 7 4 2 1 2 3 3 2 1 1 3 3 3 3 3 3 3 3 4 3 2 1 0 1 1 1 0 0 0 0 0
0 0 0 0 0 0 0 0 0 0 0 0 0 0 0 1 3 6 7 5 2 0 0 1 1 1 0 1 2 2 2 2 2 3 2 2 3 3 2 1 0 0 0 0 0 0 0 0 0
0 0 0 0 0 0 0 0 0 0 0 0 0 0 0 0 1 3 5 5 2 1 0 0 0 0 0 0 1 1 1 0 1 1 1 1 2 2 2 1 0 0 0 0 0 0 0 0 0
0 0 0 0 0 0 0 0 0 0 0 0 0 0 0 0 0 1 3 3 2 1 1 0 0 0 0 0 0 0 0 0 0 0 0 0 1 1 1 0 0 0 0 0 0 0 0 0 0
0 0 0 0 0 0 0 0 0 0 0 0 0 0 0 0 0 0 1 1 1 1 1 0 0 0 0 0 0 0 1 1 1 0 0 0 0 0 0 0 0 0 0 0 0 0 0 0 0
0 0 0 0 0 0 0 0 0 0 0 0 0 0 0 0 0 0 0 0 0 0 0 0 0 1 1 1 0 0 2 3 2 0 0 0 0 0 0 0 0 0 0 0 0 0 0 0 0
0 0 0 0 0 0 0 0 0 0 0 0 0 0 0 0 0 0 0 0 0 0 0 0 0 1 2 1 1 0 2 3 2 1 1 1 1 0 0 0 0 0 0 0 0 0 0 0 0
0 0 0 0 0 0 0 0 0 0 0 0 0 0 0 0 0 0 0 0 0 0 0 0 0 1 1 1 2 1 1 2 2 2 2 1 1 0 0 0 0 0 0 0 0 0 0 0 0
0 0 0 0 0 0 0 0 0 0 0 0 0 0 0 0 0 0 0 0 0 0 0 0 0 0 1 1 2 2 1 1 1 1 1 1 0 0 0 0 0 0 0 0 0 0 0 0 0
0 0 0 0 0 0 0 0 0 0 0 0 0 0 0 0 0 0 0 0 0 0 0 0 0 0 0 1 1 2 2 1 1 0 0 0 0 0 0 0 0 0 0 0 0 0 0 0 0
0 0 0 0 0 0 0 0 0 0 0 0 0 0 0 0 0 0 0 0 0 0 0 0 0 0 0 1 2 3 3 3 2 1 0 0 0 0 0 0 0 0 0 0 0 0 0 0 0
0 0 0 0 0 0 0 0 0 0 0 0 0 0 0 0 0 0 0 0 0 0 0 0 0 0 0 1 2 3 4 4 3 2 0 0 0 0 1 0 0 0 0 0 0 0 0 0 0
0 0 0 0 0 0 0 0 0 0 0 0 0 0 0 0 0 0 0 0 0 0 0 0 0 0 0 1 2 3 3 3 2 1 0 0 0 0 0 0 0 0 0 0 0 0 0 0 0
0 0 0 0 0 0 0 0 0 0 0 0 0 0 0 0 0 0 0 0 0 0 0 0 0 0 0 1 2 2 2 2 1 0 0 0 0 0 0 0 0 0 0 0 0 0 0 0 0
0 0 0 0 0 0 0 0 0 0 0 0 0 0 0 0 0 0 0 0 0 0 0 0 0 0 0 0 1 1 1 1 0 0 0 0 0 0 0 0 0 0 0 0 0 0 0 0 0
0 0 0 0 0 0 0 0 0 0 0 0 0 0 0 0 0 0 0 0 0 0 0 0 0 0 0 0 0 0 0 0 0 0 0 0 0 0 0 0 0 0 0 0 0 0 0 0 0
0 0 0 0 0 0 0 0 0 0 0 0 0 0 0 0 0 0 0 0 0 0 0 0 0 0 0 0 0 0 0 0 0 0 0 0 0 0 0 0 0 0 0 0 0 0 0 0 0
0 0 0 0 0 0 0 0 0 0 0 0 0 0 0 0 0 0 0 0 0 0 0 0 0 0 0 0 0 0 0 0 0 0 0 0 0 0 0 0 0 0 0 0 0 0 0 0 0
0 0 0 0 0 0 0 0 0 0 0 0 0 0 0 0 0 0 0 0 0 0 0 0 0 0 0 0 0 0 0 0 0 0 0 0 0 0 0 0 0 0 0 0 0 0 0 0 0
0 0 0 0 0 0 0 0 0 0 0 0 0 0 0 0 0 0 0 0 0 0 0 0 0 0 0 0 0 0 0 0 0 0 0 0 0 0 0 0 0 0 0 0 0 0 0 0 0
0 0 0 0 0 0 0 0 0 0 0 0 0 0 0 0 0 0 0 0 0 0 0 0 0 0 0 0 0 0 0 0 0 0 0 0 0 0 0 0 0 0 0 0 0 0 0 0 0
0 0 0 0 0 0 0 0 0 0 0 0 0 0 0 0 0 0 0 0 0 0 0 0 0 0 0 0 0 0 0 0 0 0 0 0 0 0 0 0 0 0 0 0 0 0 0 0 0
0 0 0 0 0 0 0 0 0 0 0 0 0 0 0 0 0 0 0 0 0 0 0 0 0 0 0 0 0 0 0 0 0 0 0 0 0 0 0 0 0 0 0 0 0 0 0 0 0
0 0 0 0 0 0 0 0 0 0 0 0 0 0 0 0 0 0 0 0 0 0 0 0 0 0 0 0 0 0 0 0 0 0 0 0 0 0 0 0 0 0 0 0 0 0 0 0 0
0 0 0 0 0 0 0 0 0 0 0 0 0 0 0 0 0 0 0 0 0 0 0 0 0 0 0 0 0 0 0 0 0 0 0 0 0 0 0 0 0 0 0 0 0 0 0 0 0
Wind_Speed
1 1 2 3 5 6 9 6 4 5 4 2 2 3 4 4 2 2 5 4 4 7 9 11 10 10 9 9 9 8 9 8 8 8 8 9 9 9 8 8 8 8 9 9 9 9 9 10 10
1 2 3 4 6 8 7 6 8 6 3 2 3 4 4 3 1 3 3 3 4 6 8 9 10 10 9 9 9 8 8 8 9 8 8 8 8 8 8 8 8 8 8 9 9 9 9 9 9
1 2 3 4 6 7 4 4 6 4 3 3 3 3 3 1 2 2 3 3 5 6 7 9 9 9 9 9 9 9 8 8 8 8 8 8 8 9 8 8 8 8 8 9 9 9 8 8 8
3 3 3 5 9 6 3 2 4 5 4 4 4 4 2 1 1 2 2 4 6 6 6 8 9 9 9 9 9 9 9 9 8 8 8 8 9 9 8 8 8 8 8 9 8 8 8 7 7
2 3 5 7 8 5 4 3 4 6 5 5 5 4 3 3 2 3 4 5 6 6 6 7 8 9 9 9 9 9 9 9 8 8 8 9 9 9 9 8 8 8 8 9 8 8 7 7 7
3 4 6 8 8 5 5 6 6 7 6 5 5 5 3 3 3 4 4 5 5 6 6 6 7 8 9 9 8 9 9 9 8 8 8 9 9 8 8 8 8 8 8 8 8 7 7 7 7
4 4 6 6 6 6 5 6 8 8 8 6 5 5 4 5 4 4 4 4 5 5 5 5 6 7 8 8 8 8 8 8 8 7 7 7 8 8 8 8 8 8 7 7 7 6 6 7 7
2 3 5 6 6 5 4 5 5 8 7 3 5 6 4 6 5 5 5 4 4 4 4 4 5 5 7 8 7 8 7 7 7 7 6 7 7 8 8 7 7 7 7 7 6 6 6 7 7
4 6 8 6 6 4 5 6 4 3 4 4 5 4 0 6 7 6 5 5 5 5 4 4 4 4 5 7 7 8 7 7 7 7 7 7 6 7 7 7 6 7 7 7 7 7 7 6 7
6 8 8 4 4 3 5 6 5 5 8 7 7 5 4 7 8 8 8 7 7 6 5 4 4 4 5 5 6 5 6 6 6 6 7 6 5 4 5 7 6 6 6 6 7 7 7 4 5
7 8 5 5 5 4 5 6 5 7 9 10 10 9 8 9 9 9 9 8 8 6 5 4 4 4 5 4 4 4 3 4 5 6 6 5 5 4 4 4 5 5 6 5 6 6 4 3 3
7 7 6 4 4 5 6 5 7 12 10 6 7 7 9 10 11 10 10 9 7 6 6 5 5 5 5 4 4 4 4 4 4 5 6 5 4 4 4 3 4 4 3 3 3 3 3 4 4
11 7 6 7 6 7 8 10 9 12 12 8 7 8 10 11 11 10 9 8 8 7 7 6 6 6 5 5 4 4 4 4 5 4 5 5 4 5 4 4 3 4 3 3 3 3 4 4 4
6 8 7 7 8 7 9 11 10 13 9 9 10 11 11 11 11 10 9 9 9 9 8 7 7 7 6 5 5 4 4 4 4 4 5 6 4 4 4 4 4 4 3 3 3 4 4 3 3
4 6 9 9 9 6 6 12 13 13 8 9 11 11 11 11 11 11 10 10 10 9 8 8 8 7 8 7 6 5 4 4 5 4 5 6 5 5 5 4 4 4 4 4 3 4 3 3 3
5 7 9 7 7 7 8 14 8 6 8 11 10 10 10 10 10 10 10 9 9 9 8 8 7 8 8 7 7 5 5 5 4 5 5 6 6 6 5 4 4 4 4 4 4 4 4 3 3
8 10 11 7 7 6 10 13 6 3 7 10 9 9 10 9 10 9 9 9 9 9 9 8 8 9 8 7 5 6 5 5 5 5 5 6 6 6 5 4 4 5 4 4 4 4 4 4 3
10 11 11 10 6 8 11 14 9 6 8 10 10 9 10 10 10 8 8 8 8 8 8 8 9 8 7 6 5 4 5 5 5 5 5 7 6 6 5 4 5 6 5 4 5 5 4 4 4
9 12 13 9 5 9 14 16 14 10 10 12 11 10 10 11 9 7 7 7 7 8 8 8 8 9 7 6 6 5 5 5 5 5 6 7 7 7 6 4 6 6 5 6 6 5 6 4 4
13 13 13 8 5 8 11 16 15 13 13 13 12 11 11 10 9 7 7 8 8 8 9 9 9 9 9 7 6 5 5 4 5 4 5 6 7 7 6 6 5 6 5 6 7 6 5 4 4
16 16 13 9 4 7 9 13 13 10 9 9 10 11 10 10 9 8 8 8 8 9 9 8 9 9 9 8 5 5 4 4 4 5 5 6 7 7 7 7 6 6 6 6 7 8 8 6 5
14 12 12 10 9 7 7 10 9 7 8 8 9 8 9 9 8 8 8 8 8 8 8 8 9 8 8 8 8 9 7 7 7 5 5 5 6 7 7 7 7 7 6 7 7 7 6 7 6
9 6 9 11 11 10 9 10 9 5 9 9 8 8 7 7 7 7 7 7 7 7 7 7 8 8 8 8 9 9 8 6 5 5 6 6 5 6 7 7 7 7 6 7 8 7 7 6 6
6 4 5 7 7 13 14 12 10 7 9 7 6 5 5 5 5 5 5 5 5 5 6 7 7 8 8 9 9 9 9 8 7 7 7 6 5 5 7 7 7 7 6 7 7 8 8 7 7
8 6 5 7 9 11 8 11 10 4 4 5 5 3 2 2 3 4 5 5 5 5 6 6 7 7 8 8 9 9 9 9 9 8 7 7 6 5 7 7 7 6 7 7 7 7 7 8 8
11 12 9 8 9 7 7 11 6 1 2 3 2 1 1 1 2 3 3 4 5 5 6 6 7 7 7 8 8 8 8 6 6 7 7 7 6 6 7 8 7 7 7 7 7 6 7 6 7
8 10 9 7 5 7 8 7 4 2 2 3 2 1 1 1 1 2 2 3 4 4 5 6 6 7 7 7 7 7 8 7 7 7 7 6 6 6 8 8 8 8 7 8 7 6 7 7 7
7 6 6 7 8 10 9 9 5 3 4 2 2 1 0 1 1 0 0 1 2 2 3 4 5 6 7 7 7 6 7 7 7 6 7 7 7 7 8 8 8 8 7 7 8 7 7 7 7
5 5 6 7 7 8 9 4 0 2 1 1 1 0 0 0 0 1 1 1 1 1 2 3 4 4 5 6 6 6 6 6 6 6 7 7 6 7 8 8 8 8 8 8 8 8 8 8 7
5 5 5 6 7 7 7 3 4 3 2 2 2 2 1 1 1 2 2 2 1 1 1 2 3 3 4 5 5 6 6 6 6 6 6 7 7 7 7 8 8 8 9 9 9 9 9 9 9
Wind_Direction
0 243 220 215 211 221 232 214 206 182 191 190 222 236 240 235 256 55 79 117 126 152 159 156 152 151 150 147 143 140 140 142 140 137 137 136 136 137 137 131 132 130 127 123 118 113 111 108 105
312 218 207 215 230 224 221 207 205 197 152 148 202 222 223 221 11 75 120 121 145 152 160 159 150 152 152 149 148 145 144 144 145 143 139 141 138 134 132 128 128 124 122 121 117 115 113 111 110
166 249 215 211 228 238 224 182 205 186 192 206 190 219 245 178 120 115 94 137 156 151 159 151 151 155 155 153 153 152 151 149 149 148 143 144 142 138 132 129 125 119 117 116 115 116 115 113 114
207 184 206 231 230 238 261 171 170 181 187 207 210 196 181 56 62 78 111 152 150 149 154 151 155 160 158 156 157 157 155 152 149 149 147 148 145 141 135 127 120 115 116 116 116 117 117 116 117
218 210 210 228 237 231 232 228 203 206 193 190 211 210 174 119 93 113 134 148 150 149 153 152 161 163 163 160 158 158 156 152 150 150 150 150 147 141 134 126 121 120 118 117 117 118 119 119 119
185 214 225 233 230 225 224 214 211 220 211 198 209 211 170 128 145 128 137 146 148 150 154 155 155 168 165 162 162 164 162 156 155 155 152 147 143 138 134 129 126 124 120 120 122 122 121 120 115
214 216 240 247 243 232 214 197 215 216 214 204 205 202 169 164 148 141 141 146 148 151 156 164 170 172 168 164 166 163 162 160 159 156 151 145 140 138 135 134 132 130 128 125 125 124 124 122 115
234 226 231 232 236 236 183 189 225 224 223 191 212 216 189 159 150 151 147 152 155 158 162 169 180 182 180 174 165 159 156 159 160 152 146 140 138 139 137 140 134 132 130 126 126 128 125 116 112
209 230 233 225 224 224 177 199 202 236 223 208 224 252 98 137 154 160 162 165 173 175 174 175 183 189 189 181 170 167 160 162 163 157 146 152 163 158 154 143 130 131 130 131 131 129 120 112 113
208 231 236 226 226 229 199 219 204 208 220 221 221 221 175 166 174 181 186 187 191 189 186 188 193 195 197 186 176 181 177 173 180 174 169 173 167 159 154 130 129 132 131 135 132 129 133 147 139
212 236 241 228 231 244 223 229 221 226 231 230 223 207 186 189 195 200 202 200 200 197 192 196 202 201 200 186 180 180 177 175 181 178 177 172 163 155 155 149 145 146 150 149 140 150 156 156 145
220 236 240 242 224 232 237 236 233 234 242 254 240 214 196 202 208 211 212 208 203 201 199 197 201 197 193 184 181 184 180 175 172 175 180 175 166 170 163 161 161 161 164 156 160 167 155 155 157
226 236 235 240 239 245 249 245 252 251 248 252 238 218 216 217 220 221 220 214 210 208 205 199 199 199 191 183 183 185 184 180 172 172 180 179 171 173 169 165 164 166 162 165 165 166 160 161 157
233 236 244 244 240 242 246 253 250 254 246 236 228 225 225 225 223 221 218 216 214 212 210 204 202 199 194 191 187 184 184 178 175 176 179 180 175 169 169 166 167 166 166 167 171 167 163 159 155
226 244 250 239 234 233 238 252 238 248 238 233 230 228 227 226 223 221 219 217 216 214 212 207 204 201 197 196 194 186 184 180 180 178 181 180 178 173 171 170 170 169 168 163 163 158 163 154 149
215 233 243 217 212 208 219 255 249 233 224 232 233 230 227 225 224 224 221 221 217 212 209 206 202 201 200 197 194 186 184 185 186 180 179 183 182 179 177 173 171 167 167 167 164 162 162 156 153
213 234 242 231 202 199 219 258 265 217 223 235 235 233 231 230 227 225 221 220 214 209 206 204 201 198 195 193 191 186 184 186 187 183 180 182 184 183 182 179 170 168 168 172 171 171 168 161 149
224 233 240 238 204 213 232 252 260 247 242 245 243 241 237 234 232 226 221 218 211 206 203 203 199 195 188 183 184 183 185 189 189 189 187 184 187 186 186 180 174 171 173 173 175 173 172 165 150
252 245 248 252 230 230 243 255 261 259 249 249 248 245 242 240 237 225 214 211 205 203 201 199 196 191 185 180 182 186 192 191 192 192 191 190 188 188 188 182 177 181 182 179 177 168 165 161 150
239 244 251 257 231 242 261 264 266 260 251 248 249 247 244 242 232 217 209 205 203 199 198 197 196 190 188 189 185 186 188 196 197 194 197 195 190 189 191 186 184 186 184 182 180 172 169 169 181
232 236 243 251 255 242 272 268 250 243 237 242 244 246 245 237 229 216 209 206 202 199 197 195 194 192 190 186 178 168 177 190 194 198 200 202 199 192 192 191 188 191 189 186 188 185 180 177 192
238 235 241 245 249 248 238 272 255 234 231 234 239 237 237 233 226 217 209 207 203 200 195 195 194 192 188 184 186 186 193 198 201 197 196 197 203 200 195 195 193 195 196 191 193 193 192 185 188
241 234 229 235 242 256 234 253 264 220 235 237 233 231 232 228 221 213 208 208 203 195 189 191 191 193 190 190 193 198 203 203 198 193 193 195 201 206 201 198 196 198 200 198 196 194 196 198 195
211 201 214 225 228 244 231 233 261 223 231 231 222 223 225 214 207 201 195 195 197 191 188 189 191 193 192 194 196 201 203 200 198 199 195 196 199 203 205 201 199 199 201 201 201 198 198 202 203
198 197 208 210 217 238 209 223 249 243 227 227 228 223 204 176 185 188 185 188 191 193 193 192 192 193 193 195 199 203 206 206 207 205 203 201 202 204 205 201 201 200 202 203 203 202 202 205 206
207 212 221 229 233 235 199 230 244 228 227 243 254 248 232 209 194 189 191 192 193 195 196 194 196 195 194 197 203 206 205 206 210 211 209 207 209 208 206 203 203 204 202 203 203 205 206 206 209
211 219 241 259 265 248 226 236 250 233 242 229 223 219 233 207 186 194 191 199 199 199 204 202 198 199 200 201 202 204 204 204 206 207 209 209 210 208 206 204 202 205 204 204 203 207 207 206 208
239 221 212 220 229 239 235 234 237 203 219 196 192 202 189 143 160 192 230 254 222 210 211 208 206 206 204 202 203 203 205 205 204 204 206 205 205 206 204 204 203 203 204 207 207 208 208 207 208
209 208 227 229 245 246 242 229 334 216 183 179 184 231 99 121 91 5 358 353 323 232 208 208 210 210 207 205 204 202 203 203 203 206 206 205 202 202 206 206 203 203 204 205 207 208 206 209 208
239 229 226 233 234 245 257 241 69 40 43 45 36 14 356 349 352 3 6 3 355 336 267 217 211 212 210 205 203 202 200 200 203 208 208 204 202 203 205 205 205 206 207 207 207 207 207 209 210